Overview Statistics Trail Chart Weather Telemetry Raw packets
 

This is the latest recevied weather packets stored in our database for station/object I8ZSE-10. If no packets are shown the sender has not sent any weather packets the latest 10 day(s).

<< 14 15 16 17 18 19 20 >>
Time Temp. Humidity Pressure Rain* Wind** Luminosity Snow
1788435030 28.33° C 33% - 0 mm - - -
1788434430 28.33° C 32% - 0 mm - - -
1788433830 28.33° C 32% - 0 mm - - -
1788433253 28.89° C 30% - 0 mm - - -
1788432630 28.33° C 30% - 0 mm - - -
1788432030 27.78° C 31% - 0 mm - - -
1788431430 27.22° C 30% - 0 mm - - -
1788430831 27.22° C 30% - 0 mm - - -
1788430261 27.22° C 33% - 0 mm - - -
1788429630 26.67° C 33% - 0 mm - - -
1788429030 26.67° C 32% - 0 mm - - -
1788428430 26.67° C 34% - 0 mm - - -
1788427831 27.22° C 33% - 0 mm - - -
1788427230 26.11° C 34% - 0 mm - - -
1788426630 26.11° C 35% - 0 mm - - -
1788426030 26.11° C 36% - 0 mm - - -
1788425430 26.11° C 36% - 0 mm - - -
1788424830 25.56° C 36% - 0 mm - - -
1788424231 25° C 36% - 0 mm - - -
1788423630 25.56° C 36% - 0 mm - - -
1788423030 25° C 37% - 0 mm - - -
1788422431 25° C 40% - 0 mm - - -
1788421830 25° C 44% - 0 mm - - -
1788421231 25° C 46% - 0 mm - - -
1788420631 24.44° C 49% - 0 mm - - -

* Rain latest hour (hover to see other rain measurements)
** Current wind speed in m/s (hover to see current wind gust speed)